(218377) = 2004 KB15

Discovered at Goodricke-Pigott on 2004-05-22 by Goodricke-Pigott.

Orbit

Orbit type: Main Belt

Note: WebGL enabled browser required.

epoch2024-03-31.0
epoch JD2460400.5
perihelion date2022-04-17.41980
perihelion JD2459686.91980
argument of perihelion (°)198.21779
ascending node (°)85.48299
inclination (°)15.35326
eccentricity0.2352268
perihelion distance (AU)2.0408776
Tisserand w.r.t. Jupiter3.3
ΔV w.r.t. Earth (km/sec)10.1
semimajor axis (AU)2.6686050
mean anomaly (°)161.33188
mean daily motion (°/day)0.22608790
aphelion distance (AU)3.296
period (years)4.36
P-vector [x]0.22572881
P-vector [y]-0.85764380
P-vector [z]-0.46205370
Q-vector [x]0.93775178
Q-vector [y]0.31979648
Q-vector [z]-0.13546883
absolute magnitude15.76
phase slope0.15
uncertainty0
referenceMPEC 2024-E152
observations used577
oppositions16
arc length (days)8677
first opposition used2000
last opposition used2024
residual rms (arc-secs)0.69
perturbers coarse indicatorM-v
perturbers precise indicator003Ek
first observation date used2000-06-07.0
last observation date used2024-03-10.0
computer nameMPCLINUX
JD of orbit computation2456937.386786
perihelion JD uncertainty (days)1.7673E-04
argument of perihelion uncertainty (°)4.8846E-05
ascending node uncertainty (°)3.8912E-05
inclination uncertainty (°)9.2386E-06
eccentricity uncertainty 9.0695E-08
perihelion distance uncertainty (AU)2.2297E-07
Minimum Orbit Intersection Distances (in AU)
for orbit epoch: 2460400.5, reference: E2024-EF2
Mercury1.58249
Venus1.31494
Earth1.02942
Mars0.59425
Jupiter1.86095
Saturn5.76728
Uranus15.4218
Neptune26.7231

Observations

586 total observations over interval: 2000 06 07.36509 – 2024 03 10.54616
These data are available for download (format description).

Date (UT) J2000 RA J2000 Dec Magn Location Ref
2000 06 07.36509 19 59 04.29 -26 33 37.0 18.7   704 – Lincoln Laboratory ETS, New Mexico MPS 110125
2000 06 07.37799 19 59 04.34 -26 33 46.5 19.3   704 – Lincoln Laboratory ETS, New Mexico MPS 110125
2000 06 07.39113 19 59 04.28 -26 33 56.1 18.6   704 – Lincoln Laboratory ETS, New Mexico MPS 110125
2000 06 07.40409 19 59 04.36 -26 34 06.5 18.5   704 – Lincoln Laboratory ETS, New Mexico MPS 110125
2000 06 07.41719 19 59 04.33 -26 34 16.2 18.6   704 – Lincoln Laboratory ETS, New Mexico MPS 110125
2001 12 14.15173 03 52 33.17 +12 23 40.2 21.3   644 – Palomar Mountain/NEAT MPS 110125
2001 12 14.21985 03 52 29.65 +12 23 50.0 21.1   644 – Palomar Mountain/NEAT MPS 110125
2001 12 14.28431 03 52 26.33 +12 23 58.6 21.5   644 – Palomar Mountain/NEAT MPS 110125
2004 04 16.29675 15 08 56.08 +03 13 18.7 18.8   704 – Lincoln Laboratory ETS, New Mexico MPS 108719
2004 04 16.30761 15 08 55.57 +03 13 20.4 19.2   704 – Lincoln Laboratory ETS, New Mexico MPS 108719
2004 04 16.31838 15 08 55.10 +03 13 22.5 19.6   704 – Lincoln Laboratory ETS, New Mexico MPS 108719
2004 04 16.32919 15 08 54.59 +03 13 23.7 19.3   704 – Lincoln Laboratory ETS, New Mexico MPS 108719
2004 04 16.39700 15 08 51.42 +03 13 33.4 19.0 R 699 – Lowell Observatory-LONEOS MPS 108719
2004 04 16.41731 15 08 50.43 +03 13 36.9   699 – Lowell Observatory-LONEOS MPS 108719
2004 04 16.43760 15 08 49.43 +03 13 40.2   699 – Lowell Observatory-LONEOS MPS 108719
2004 04 16.45792 15 08 48.70 +03 13 43.3   699 – Lowell Observatory-LONEOS MPS 108719
2004 04 24.30089 15 02 17.87 +03 27 56.7 19.1   704 – Lincoln Laboratory ETS, New Mexico MPS 108542
2004 04 24.31086 15 02 17.32 +03 27 59.0 19.3   704 – Lincoln Laboratory ETS, New Mexico MPS 108542
2004 04 24.32159 15 02 16.69 +03 27 58.7 19.4   704 – Lincoln Laboratory ETS, New Mexico MPS 108542
2004 04 24.34184 15 02 15.51 +03 28 00.3 19.0   704 – Lincoln Laboratory ETS, New Mexico MPS 108542
2004 05 14.25173 14 42 37.52 +03 06 06.6 18.8   704 – Lincoln Laboratory ETS, New Mexico MPS 108188
2004 05 14.26122 14 42 36.96 +03 06 04.2 18.9   704 – Lincoln Laboratory ETS, New Mexico MPS 108188
2004 05 14.27074 14 42 36.35 +03 06 01.9 19.2   704 – Lincoln Laboratory ETS, New Mexico MPS 108188
2004 05 14.28021 14 42 35.79 +03 06 00.6 18.8   704 – Lincoln Laboratory ETS, New Mexico MPS 108188
2004 05 14.28971 14 42 35.20 +03 05 58.3 19.2   704 – Lincoln Laboratory ETS, New Mexico MPS 108188
2004 05 22.20600 14 35 10.79 +02 29 44.7 21.0 R 683 – Goodricke-Pigott Observatory, Tucson MPS 108188
2004 05 22.21939 14 35 10.02 +02 29 39.6 20.1 R 683 – Goodricke-Pigott Observatory, Tucson MPS 108188
2004 05 22.23275 14 35 09.35 +02 29 33.8 21.1 R 683 – Goodricke-Pigott Observatory, Tucson MPS 108188
2004 05 24.19934 14 33 28.44 +02 18 06.9 19.8 R 683 – Goodricke-Pigott Observatory, Tucson MPS 108188
2004 05 24.21274 14 33 27.82 +02 18 00.7 20.5 R 683 – Goodricke-Pigott Observatory, Tucson MPS 108188
2004 05 24.22609 14 33 26.96 +02 17 58.1 20.6 R 683 – Goodricke-Pigott Observatory, Tucson MPS 108188
2004 05 24.25117 14 33 25.73 +02 17 48.1 18.3   704 – Lincoln Laboratory ETS, New Mexico MPS 108188
2004 05 24.26010 14 33 25.20 +02 17 44.6 19.0   704 – Lincoln Laboratory ETS, New Mexico MPS 108188
2004 05 24.26903 14 33 24.84 +02 17 41.7 18.7   704 – Lincoln Laboratory ETS, New Mexico MPS 108188
2004 05 24.27795 14 33 24.32 +02 17 38.8 18.8   704 – Lincoln Laboratory ETS, New Mexico MPS 108188
2004 05 24.28687 14 33 23.85 +02 17 35.1 19.1   704 – Lincoln Laboratory ETS, New Mexico MPS 108188
2004 05 27.19162 14 31 03.97 +01 58 48.9 20.6 R 683 – Goodricke-Pigott Observatory, Tucson MPS 108188
2004 05 27.20502 14 31 03.38 +01 58 45.4 20.9 R 683 – Goodricke-Pigott Observatory, Tucson MPS 108188
2004 05 27.21842 14 31 02.57 +01 58 41.5 20.7 R 683 – Goodricke-Pigott Observatory, Tucson MPS 108188
2004 06 12.23781 14 22 02.58 -00 17 22.4 19.2 R 699 – Lowell Observatory-LONEOS MPS 109066
2004 06 12.25725 14 22 02.13 -00 17 34.8   699 – Lowell Observatory-LONEOS MPS 109066
2004 06 12.27672 14 22 01.61 -00 17 45.7   699 – Lowell Observatory-LONEOS MPS 109066
2004 06 12.29619 14 22 01.17 -00 17 57.7   699 – Lowell Observatory-LONEOS MPS 109066
2006 10 23.40427 07 27 47.16 +23 59 34.7 21.6 V G96 – Mt. Lemmon Survey MPS 184071
2006 10 23.41174 07 27 47.34 +23 59 35.7 21.7 V G96 – Mt. Lemmon Survey MPS 184071
2006 10 23.41913 07 27 47.52 +23 59 36.7 21.8 V G96 – Mt. Lemmon Survey MPS 184071
2006 10 23.42661 07 27 47.70 +23 59 37.9 22.2 V G96 – Mt. Lemmon Survey MPS 184071
2006 11 22.35496 07 29 42.03 +25 43 20.7 21.0   G96 – Mt. Lemmon Survey MPS 188686
2006 11 22.36390 07 29 41.85 +25 43 23.4 21.1   G96 – Mt. Lemmon Survey MPS 188686
2006 11 22.37294 07 29 41.64 +25 43 26.1 20.8   G96 – Mt. Lemmon Survey MPS 188686
2006 11 22.38191 07 29 41.49 +25 43 28.1 21.1   G96 – Mt. Lemmon Survey MPS 188686
2006 12 24.23158 07 08 18.22 +28 28 04.7 20.8 V 691 – Steward Observatory, Kitt Peak-Spacewatch MPS 192196
2006 12 24.24903 07 08 17.18 +28 28 10.1 20.7 V 691 – Steward Observatory, Kitt Peak-Spacewatch MPS 192196
2006 12 24.26641 07 08 16.13 +28 28 15.4 20.6 V 691 – Steward Observatory, Kitt Peak-Spacewatch MPS 192196
2008 02 27.30458 12 32 50.27 +21 34 00.0   291 – LPL/Spacewatch II MPS 239417
2008 02 27.31022 12 32 50.08 +21 34 02.9   291 – LPL/Spacewatch II MPS 239417
2008 02 27.31604 12 32 49.84 +21 34 06.1   291 – LPL/Spacewatch II MPS 239417
2008 03 11.30469 12 23 24.68 +23 23 06.9 19.7 V 703 – Catalina Sky Survey MPS 242099
2008 03 11.31139 12 23 24.36 +23 23 10.3 19.9 V 703 – Catalina Sky Survey MPS 242099
2008 03 11.31800 12 23 23.96 +23 23 12.8 20.2 V 703 – Catalina Sky Survey MPS 242099
2008 03 11.32461 12 23 23.53 +23 23 16.2 19.9 V 703 – Catalina Sky Survey MPS 242099
2009 07 19.60925 00 04 37.88 -22 19 26.4 18.9 V E12 – Siding Spring Survey MPS 289819
2009 07 19.62688 00 04 38.38 -22 19 34.4 19.2 V E12 – Siding Spring Survey MPS 289819
2009 08 17.78121 00 05 24.68 -27 12 59.4 18.6 V E12 – Siding Spring Survey MPS 291712
2009 08 17.78898 00 05 24.43 -27 13 03.9 18.9 V E12 – Siding Spring Survey MPS 291712
2009 08 17.79675 00 05 24.21 -27 13 09.0 18.7 V E12 – Siding Spring Survey MPS 291712
2009 08 17.80451 00 05 24.00 -27 13 14.3 18.5 V E12 – Siding Spring Survey MPS 291712
2009 09 16.55576 23 42 11.48 -30 49 30.0 18.8 V E12 – Siding Spring Survey MPS 295697
2009 09 16.56116 23 42 11.16 -30 49 30.9 18.6 V E12 – Siding Spring Survey MPS 295697
2009 09 16.56662 23 42 10.83 -30 49 31.8 18.6 V E12 – Siding Spring Survey MPS 295697
2009 09 16.57206 23 42 10.51 -30 49 33.0 18.8 V E12 – Siding Spring Survey MPS 295697
2009 09 24.61628 23 34 58.94 -30 59 40.0 18.9 V E12 – Siding Spring Survey MPS 296805
2009 09 24.62549 23 34 58.40 -30 59 39.4 19.0 V E12 – Siding Spring Survey MPS 296805
2009 09 24.63472 23 34 57.97 -30 59 39.5 19.1 V E12 – Siding Spring Survey MPS 296805
2009 09 24.64406 23 34 57.46 -30 59 39.5 18.8 V E12 – Siding Spring Survey MPS 296805
2009 09 25.28822 23 34 25.03 -30 59 32.1 18.5 V 703 – Catalina Sky Survey MPS 297739
2009 09 25.29435 23 34 24.67 -30 59 32.2 19.5 V 703 – Catalina Sky Survey MPS 297739
2009 09 25.30046 23 34 24.34 -30 59 31.5 19.5 V 703 – Catalina Sky Survey MPS 297739
2009 09 25.30657 23 34 24.02 -30 59 31.3 18.8 V 703 – Catalina Sky Survey MPS 297739
2009 10 21.52949 23 20 11.79 -28 56 36.2 19.6 V E12 – Siding Spring Survey MPS 300486
2009 10 21.54181 23 20 11.65 -28 56 30.0 19.3 V E12 – Siding Spring Survey MPS 300486
2009 10 21.55409 23 20 11.50 -28 56 24.1 19.5 V E12 – Siding Spring Survey MPS 300486
2009 10 21.56637 23 20 11.36 -28 56 17.7 19.1 V E12 – Siding Spring Survey MPS 300486
2010 12 13.28414 05 20 56.32 +21 14 40.0 19.3 V G96 – Mt. Lemmon Survey MPS 362479
2010 12 13.29456 05 20 55.68 +21 14 41.2 19.3 V G96 – Mt. Lemmon Survey MPS 362479
2010 12 13.29977 05 20 55.32 +21 14 42.3 19.4 V G96 – Mt. Lemmon Survey MPS 362479
2011 01 12.13000 04 54 16.66 +22 24 28.8 20.2 V G96 – Mt. Lemmon Survey MPS 366675
2011 01 12.13706 04 54 16.38 +22 24 29.9 20.5 V G96 – Mt. Lemmon Survey MPS 366675
2011 01 12.14405 04 54 16.09 +22 24 30.7 20.3 V G96 – Mt. Lemmon Survey MPS 366675
